sat.trackr.live / text

‹ back to catalog

STARLINK-34788

NORAD 65056 · 2025-165A

PAYLOAD ACTIVE UNKNOWN

§ Identity

Operator
Country
US
Launch date
2025-07-31
Launch site
AFWTR
Launch vehicle
Mass (kg)
RCS (m²)

Purposes: comms

External: N2YO · Heavens-Above · Gunter

§ Orbital elements

Epoch: 2026-05-25T04:56:18.529728Z

Period
95.64 min
Inclination
97.4492°
Eccentricity
0.0000929
Mean motion
15.05651552 rev/d
Perigee alt
548.9 km
Apogee alt
550.1 km
Semi-major
6,927.6 km
B*
2.9275e-4
RAAN
222.2759°
Arg perigee
130.2900°
Mean anomaly
229.8408°
Rev number
4,630

§ Raw data

STARLINK-347881 65056U 25165A   26145.20577002  .00004168  00000+0  29275-3 0  99982 65056  97.4492 222.2759 0000929 130.2900 229.8408 15.05651552 46304

JSON: /api/v1/satellites/65056 · /tle

For live sub-satellite position, see the globe view (requires WebGL).

§ Visibility from observer

Set your observer location to see the next 7 days of passes ≥ 10°. The values pass through the URL so the page stays shareable.

No JS? Fill the form by hand. The geolocation button needs JavaScript.